Location: Baili�vre
(50.0696°N, 4.2409°E)
Time: 21:48:19
(UTC+00:00)

Cosmos 2239 Rocket - Pass Details

Date: 08 August 2020
Orbit: 955 x 990 km, 82.9° (Epoch: 21 September)

Event Time Altitude Azimuth Distance (km) Brightness Sun altitude
Rises 20:13:42 0° 178° (S) 3,622 7.1 -9.0°
Reaches altitude 10° 20:16:11 10° 176° (S) 2,679 6.4 -9.3°
Maximum altitude 20:22:15 68° 95° (E) 1,031 4.5 -10.1°
Drops below altitude 10° 20:28:22 10° 14° (NNE) 2,703 7.2 -10.8°
Sets 20:30:53 0° 12° (NNE) 3,657 7.9 -11.1°
